| time (UTC) | temp F | wind direction | speed MPH | gust MPH | rain 1hr in | rain 24hr in | rain mn in | humidity % | barometer mb |
| 20260506102309 | 56 | 41 | 1.0 | 3.0 | 0.09 | 0.21 | 0.21 | 1 | 1006.1 |
| 20260506094924 | 56 | 49 | 1.0 | 6.0 | 0.00 | 0.14 | 0.15 | 1 | 1006.1 |
| 20260506093928 | 56 | 51 | 1.0 | 4.0 | 0.00 | 0.14 | 0.15 | 1 | 1006.0 |
| 20260506092910 | 56 | 43 | 1.0 | 6.0 | 0.00 | 0.14 | 0.15 | 1 | 1006.1 |
| 20260506091916 | 56 | 46 | 1.0 | 6.0 | 0.05 | 0.13 | 0.13 | 1 | 1006.3 |
| 20260506090847 | 57 | 42 | 1.0 | 6.0 | 0.05 | 0.13 | 0.13 | 1 | 1006.4 |
| 20260506085911 | 57 | 38 | 3.0 | 9.0 | 0.08 | 0.13 | 0.13 | 1 | 1006.5 |
| 20260506084901 | 56 | 53 | 2.0 | 9.0 | 0.05 | 0.10 | 0.12 | 1 | 1006.6 |
| 20260506083833 | 56 | 44 | 0.0 | 1.0 | 0.05 | 0.09 | 0.10 | 1 | 1006.5 |
| 20260506082828 | 56 | 44 | 0.0 | 0.0 | 0.04 | 0.09 | 0.10 | 1 | 1006.3 |
| 20260506080649 | 56 | 44 | 0.0 | 0.0 | 0.08 | 0.08 | 0.08 | 1 | 1006.4 |
| 20260506073517 | 56 | 44 | 0.0 | 0.0 | 0.00 | 0.06 | 0.06 | 1 | 1006.2 |
| 20260506072507 | 56 | 44 | 0.0 | 0.0 | 0.00 | 0.04 | 0.06 | 1 | 1006.3 |
| 20260506071502 | 56 | 44 | 0.0 | 0.0 | 0.00 | 0.04 | 0.05 | 1 | 1006.6 |
| 20260506070505 | 57 | 44 | 0.0 | 0.0 | 0.05 | 0.04 | 0.05 | 1 | 1006.7 |
| 20260506062440 | 57 | 44 | 0.0 | 0.0 | 0.00 | 0.01 | 0.01 | 1 | 1007.4 |
| 20260506061444 | 57 | 44 | 0.0 | 0.0 | 0.00 | 0.01 | 0.01 | 1 | 1007.5 |
| 20260506060451 | 57 | 44 | 0.0 | 0.0 | 0.00 | 0.01 | 0.01 | 1 | 1007.8 |
| 20260506050235 | 60 | 105 | 2.0 | 8.0 | 0.00 | 0.00 | 0.00 | 55 | 1008.2 |
| 20260506044227 | 62 | 96 | 3.0 | 12.0 | 0.00 | 0.00 | 0.00 | 64 | 1008.3 |
| 20260506043211 | 63 | 91 | 3.0 | 12.0 | 0.00 | 0.00 | 0.00 | 64 | 1008.3 |
| 20260506042152 | 65 | 102 | 4.0 | 10.0 | 0.00 | 0.00 | 0.00 | 59 | 1008.4 |
| 20260506041149 | 67 | 91 | 2.0 | 7.0 | 0.00 | 0.00 | 0.00 | 53 | 1008.1 |
| 20260506040208 | 67 | 104 | 1.0 | 3.0 | 0.00 | 0.00 | 0.00 | 52 | 1007.8 |
| 20260506035214 | 67 | 56 | 1.0 | 5.0 | 0.00 | 0.00 | 0.00 | 52 | 1007.6 |
| 20260506033022 | 67 | 65 | 3.0 | 7.0 | 0.00 | 0.00 | 0.00 | 52 | 1007.7 |
| 20260506032017 | 67 | 43 | 2.0 | 8.0 | 0.00 | 0.00 | 0.00 | 52 | 1007.6 |
| 20260506030957 | 67 | 41 | 3.0 | 6.0 | 0.00 | 0.00 | 0.00 | 52 | 1007.7 |
| 20260506025938 | 67 | 40 | 2.0 | 6.0 | 0.00 | 0.00 | 0.00 | 52 | 1007.7 |
| 20260506024926 | 67 | 46 | 2.0 | 6.0 | 0.00 | 0.00 | 0.00 | 53 | 1007.7 |
| 20260506023929 | 67 | 40 | 1.0 | 6.0 | 0.00 | 0.00 | 0.00 | 52 | 1007.9 |
| 20260506022926 | 67 | 45 | 1.0 | 5.0 | 0.00 | 0.00 | 0.00 | 52 | 1008.0 |
| 20260506021901 | 67 | 52 | 1.0 | 3.0 | 0.00 | 0.00 | 0.00 | 52 | 1008.0 |
| 20260506020857 | 67 | 51 | 0.0 | 2.0 | 0.00 | 0.00 | 0.00 | 52 | 1008.0 |
| 20260506014704 | 68 | 49 | 1.0 | 5.0 | 0.00 | 0.00 | 0.00 | 50 | 1007.9 |
| 20260506013721 | 68 | 45 | 1.0 | 5.0 | 0.00 | 0.00 | 0.00 | 50 | 1007.7 |
| 20260506012716 | 68 | 52 | 1.0 | 5.0 | 0.00 | 0.00 | 0.00 | 50 | 1007.6 |
| 20260506011730 | 69 | 51 | 1.0 | 5.0 | 0.00 | 0.00 | 0.00 | 49 | 1007.7 |
| 20260506010738 | 69 | 58 | 1.0 | 4.0 | 0.00 | 0.00 | 0.00 | 49 | 1007.7 |
| 20260506005801 | 69 | 49 | 2.0 | 6.0 | 0.00 | 0.00 | 0.00 | 49 | 1007.8 |
| 20260506004805 | 69 | 27 | 2.0 | 6.0 | 0.00 | 0.00 | 0.00 | 48 | 1007.9 |
| 20260506003827 | 69 | 46 | 2.0 | 6.0 | 0.00 | 0.00 | 0.00 | 48 | 1007.9 |
| 20260506001615 | 70 | 49 | 2.0 | 6.0 | 0.00 | 0.00 | 0.00 | 47 | 1007.8 |
| 20260506000548 | 70 | 40 | 1.0 | 5.0 | 0.00 | 0.00 | 0.00 | 47 | 1007.9 |
| 20260505235537 | 70 | 44 | 2.0 | 5.0 | 0.00 | 0.00 | 0.00 | 47 | 1007.8 |
| 20260505234542 | 70 | 45 | 3.0 | 7.0 | 0.00 | 0.00 | 0.00 | 46 | 1007.8 |
| 20260505233512 | 70 | 31 | 3.0 | 10.0 | 0.00 | 0.00 | 0.00 | 45 | 1007.9 |
| 20260505232444 | 71 | 39 | 3.0 | 10.0 | 0.00 | 0.00 | 0.00 | 45 | 1007.8 |
| 20260505231420 | 71 | 35 | 3.0 | 9.0 | 0.00 | 0.00 | 0.00 | 46 | 1007.8 |
| 20260505224215 | 71 | 51 | 4.0 | 14.0 | 0.00 | 0.00 | 0.00 | 48 | 1008.0 |
| 20260505223200 | 72 | 54 | 4.0 | 9.0 | 0.00 | 0.00 | 0.00 | 48 | 1007.9 |
| 20260505221011 | 72 | 90 | 3.0 | 12.0 | 0.00 | 0.00 | 0.00 | 49 | 1008.0 |
| 20260505215957 | 72 | 146 | 2.0 | 12.0 | 0.00 | 0.00 | 0.00 | 50 | 1008.1 |
| 20260505215003 | 72 | 51 | 4.0 | 10.0 | 0.00 | 0.00 | 0.00 | 51 | 1008.1 |
| 20260505213958 | 73 | 28 | 3.0 | 9.0 | 0.00 | 0.00 | 0.00 | 49 | 1008.0 |
| 20260505211907 | 73 | 86 | 4.0 | 13.0 | 0.00 | 0.00 | 0.00 | 49 | 1008.0 |
| 20260505210914 | 73 | 75 | 5.0 | 15.0 | 0.00 | 0.00 | 0.00 | 49 | 1008.0 |
| 20260505205856 | 73 | 84 | 6.0 | 15.0 | 0.00 | 0.00 | 0.00 | 49 | 1007.9 |
| 20260505204908 | 73 | 46 | 6.0 | 13.0 | 0.00 | 0.00 | 0.00 | 48 | 1008.0 |
| 20260505203859 | 73 | 84 | 6.0 | 13.0 | 0.00 | 0.00 | 0.00 | 47 | 1008.1 |
| 20260505202839 | 73 | 96 | 6.0 | 16.0 | 0.00 | 0.00 | 0.00 | 48 | 1008.0 |
| 20260505201816 | 73 | 75 | 6.0 | 16.0 | 0.00 | 0.00 | 0.00 | 48 | 1007.9 |
| 20260505200819 | 74 | 94 | 7.0 | 17.0 | 0.00 | 0.00 | 0.00 | 47 | 1007.9 |
| 20260505195826 | 73 | 78 | 8.0 | 18.0 | 0.00 | 0.00 | 0.00 | 48 | 1008.0 |
| 20260505194819 | 74 | 95 | 6.0 | 18.0 | 0.00 | 0.00 | 0.00 | 48 | 1008.1 |
| 20260505193820 | 73 | 98 | 4.0 | 11.0 | 0.00 | 0.00 | 0.00 | 50 | 1008.1 |
| 20260505192811 | 73 | 90 | 5.0 | 11.0 | 0.00 | 0.00 | 0.00 | 49 | 1008.1 |
| 20260505190636 | 74 | 68 | 6.0 | 11.0 | 0.00 | 0.00 | 0.00 | 49 | 1008.1 |
| 20260505185634 | 74 | 97 | 4.0 | 11.0 | 0.00 | 0.00 | 0.00 | 47 | 1008.0 |
| 20260505184611 | 74 | 113 | 2.0 | 7.0 | 0.00 | 0.00 | 0.00 | 49 | 1008.1 |
| 20260505183636 | 74 | 26 | 3.0 | 14.0 | 0.00 | 0.00 | 0.00 | 48 | 1008.0 |
| 20260505182612 | 73 | 90 | 6.0 | 14.0 | 0.00 | 0.00 | 0.00 | 47 | 1008.0 |
| 20260505181547 | 74 | 98 | 5.0 | 13.0 | 0.00 | 0.00 | 0.00 | 46 | 1008.1 |
| 20260505180606 | 75 | 96 | 5.0 | 15.0 | 0.00 | 0.00 | 0.00 | 48 | 1008.0 |
| 20260505175551 | 75 | 100 | 6.0 | 16.0 | 0.00 | 0.00 | 0.00 | 46 | 1008.1 |
| 20260505174548 | 75 | 46 | 6.0 | 16.0 | 0.00 | 0.00 | 0.00 | 45 | 1007.9 |
| 20260505173543 | 74 | 93 | 5.0 | 17.0 | 0.00 | 0.00 | 0.00 | 47 | 1007.8 |
| 20260505172516 | 75 | 20 | 6.0 | 17.0 | 0.00 | 0.00 | 0.00 | 46 | 1007.9 |
| 20260505171454 | 75 | 58 | 7.0 | 16.0 | 0.00 | 0.00 | 0.00 | 46 | 1008.0 |
| 20260505170430 | 75 | 65 | 6.0 | 16.0 | 0.00 | 0.00 | 0.00 | 46 | 1008.0 |
| 20260505165401 | 74 | 91 | 6.0 | 15.0 | 0.00 | 0.00 | 0.00 | 48 | 1008.3 |
| 20260505164401 | 74 | 47 | 5.0 | 20.0 | 0.00 | 0.00 | 0.00 | 47 | 1008.2 |
| 20260505163424 | 74 | 100 | 6.0 | 20.0 | 0.00 | 0.00 | 0.00 | 47 | 1008.3 |
| 20260505161227 | 73 | 346 | 8.0 | 16.0 | 0.00 | 0.00 | 0.00 | 48 | 1008.4 |
| 20260505160217 | 73 | 105 | 7.0 | 20.0 | 0.00 | 0.00 | 0.00 | 48 | 1008.6 |
| 20260505153259 | 74 | 40 | 5.0 | 19.0 | 0.00 | 0.00 | 0.00 | 49 | 1008.5 |
| 20260505152322 | 73 | 25 | 7.0 | 19.0 | 0.00 | 0.00 | 0.00 | 48 | 1008.5 |
| 20260505150112 | 71 | 346 | 7.0 | 21.0 | 0.00 | 0.00 | 0.00 | 50 | 1008.4 |
| 20260505124820 | 67 | 46 | 4.0 | 11.0 | 0.00 | 0.00 | 0.00 | 58 | 1009.2 |
| 20260505123836 | 66 | 39 | 4.0 | 10.0 | 0.00 | 0.00 | 0.00 | 59 | 1009.3 |
| 20260505121650 | 65 | 43 | 4.0 | 13.0 | 0.00 | 0.00 | 0.00 | 60 | 1009.4 |
| 20260505120707 | 65 | 44 | 3.0 | 12.0 | 0.00 | 0.00 | 0.00 | 61 | 1009.4 |
| 20260505115718 | 64 | 55 | 3.0 | 12.0 | 0.00 | 0.00 | 0.00 | 62 | 1009.4 |
| 20260505114739 | 64 | 50 | 3.0 | 9.0 | 0.00 | 0.00 | 0.00 | 62 | 1009.4 |
| 20260505113722 | 63 | 42 | 3.0 | 10.0 | 0.00 | 0.00 | 0.00 | 63 | 1009.3 |
| 20260505112719 | 62 | 51 | 3.0 | 10.0 | 0.00 | 0.00 | 0.00 | 63 | 1009.3 |
| 20260505111744 | 62 | 40 | 1.0 | 7.0 | 0.00 | 0.00 | 0.00 | 63 | 1009.1 |
| 20260505110738 | 62 | 51 | 2.0 | 7.0 | 0.00 | 0.00 | 0.00 | 63 | 1009.0 |